When you browse on this site, cookies collect data to enhance your experience and personalize the content and advertising you see.
Visit our Privacy Policy to learn more. By continuing to use the site, you agree to this use of cookies and data.
  • în România
  • Lista ţărilor
  • Pe 7 zile
  • Temperatura apei
  • Hartă satelitară
  • Meteo pe hartă
  • Widget-uri
  • user-avatar
    Intrare

    Meteo pe oră la Vinh

    Astăzi, 18 Decembrie, Marţi

    Timp Temperatura Precipitaţii Vânt Presiune Umiditate
    00:00 +16°C° 0 mm 1 m/s 753 mmHg 79%
    01:00 +15°C° 0 mm 1 m/s 753 mmHg 79%
    02:00 +15°C° 0 mm 1 m/s 753 mmHg 79%
    03:00 +15°C° 0 mm 1 m/s 753 mmHg 80%
    04:00 +15°C° 0 mm 1 m/s 753 mmHg 80%
    05:00 +15°C° 0 mm 1 m/s 753 mmHg 80%
    06:00 +15°C° 0 mm 1 m/s 753 mmHg 81%
    07:00 +16°C° 0 mm 1 m/s 753 mmHg 77%
    08:00 +19°C° 0 mm 1 m/s 753 mmHg 71%
    09:00 +20°C° 0 mm 2 m/s 753 mmHg 65%
    10:00 +23°C° 0 mm 2 m/s 753 mmHg 59%
    11:00 +24°C° 0 mm 2 m/s 753 mmHg 58%
    12:00 +25°C° 0 mm 2 m/s 752 mmHg 57%
    13:00 +26°C° 0 mm 2 m/s 751 mmHg 56%
    14:00 +25°C° 0 mm 2 m/s 751 mmHg 59%
    15:00 +25°C° 0 mm 2 m/s 750 mmHg 63%
    16:00 +25°C° 0 mm 2 m/s 750 mmHg 67%
    17:00 +23°C° 0 mm 1 m/s 750 mmHg 74%
    18:00 +21°C° 0 mm 1 m/s 751 mmHg 81%
    19:00 +20°C° 0 mm 1 m/s 751 mmHg 88%
    20:00 +19°C° 0 mm 1 m/s 751 mmHg 89%
    21:00 +19°C° 0 mm 1 m/s 752 mmHg 90%
    22:00 +19°C° 0 mm 1 m/s 752 mmHg 90%
    23:00 +19°C° 0 mm 1 m/s 752 mmHg 91%

    Mâine, 19 Decembrie, Miercuri

    Timp Temperatura Precipitaţii Vânt Presiune Umiditate
    00:00 +19°C° 0 mm 1 m/s 752 mmHg 91%
    01:00 +19°C° 0 mm 1 m/s 752 mmHg 92%
    02:00 +19°C° 0 mm 1 m/s 751 mmHg 92%
    03:00 +19°C° 0 mm 1 m/s 751 mmHg 93%
    04:00 +19°C° 0 mm 1 m/s 751 mmHg 93%
    05:00 +19°C° 0 mm 1 m/s 751 mmHg 93%
    06:00 +19°C° 0 mm 1 m/s 751 mmHg 93%
    07:00 +19°C° 0 mm 1 m/s 751 mmHg 93%
    08:00 +22°C° 0 mm 1 m/s 751 mmHg 84%
    09:00 +24°C° 0 mm 1 m/s 752 mmHg 76%
    10:00 +26°C° 0 mm 1 m/s 752 mmHg 67%
    11:00 +28°C° 0 mm 1 m/s 751 mmHg 64%
    12:00 +29°C° 0 mm 1 m/s 750 mmHg 61%
    13:00 +30°C° 0 mm 2 m/s 749 mmHg 58%
    14:00 +29°C° 0 mm 2 m/s 749 mmHg 61%
    15:00 +29°C° 0 mm 2 m/s 749 mmHg 65%
    16:00 +28°C° 0 mm 2 m/s 748 mmHg 69%
    17:00 +26°C° 0 mm 2 m/s 748 mmHg 77%
    18:00 +25°C° 0 mm 1 m/s 749 mmHg 85%
    19:00 +23°C° 0 mm 1 m/s 749 mmHg 94%
    20:00 +23°C° 0 mm 1 m/s 749 mmHg 94%
    21:00 +21°C° 0 mm 0 m/s 750 mmHg 95%
    22:00 +21°C° 0 mm 0 m/s 750 mmHg 95%
    23:00 +21°C° 0 mm 0 m/s 750 mmHg 95%

    Poimâine, 20 Decembrie, Joi

    Timp Temperatura Precipitaţii Vânt Presiune Umiditate
    00:00 +20°C° 0 mm 0 m/s 749 mmHg 95%
    01:00 +20°C° 0 mm 0 m/s 749 mmHg 96%
    02:00 +20°C° 0 mm 0 m/s 749 mmHg 95%
    03:00 +20°C° 0 mm 0 m/s 749 mmHg 95%
    04:00 +19°C° 0 mm 0 m/s 748 mmHg 94%
    05:00 +20°C° 0 mm 0 m/s 749 mmHg 93%
    06:00 +20°C° 0 mm 0 m/s 749 mmHg 91%
    07:00 +20°C° 0 mm 0 m/s 749 mmHg 90%
    08:00 +23°C° 0 mm 0 m/s 749 mmHg 80%
    09:00 +25°C° 0 mm 0 m/s 750 mmHg 71%
    10:00 +30°C° 0 mm 1 m/s 750 mmHg 61%
    11:00 +31°C° 0 mm 1 m/s 749 mmHg 58%
    12:00 +32°C° 0 mm 1 m/s 748 mmHg 54%
    13:00 +33°C° 0 mm 1 m/s 747 mmHg 51%
    14:00 +34°C° 0 mm 2 m/s 746 mmHg 55%
    15:00 +32°C° 0 mm 2 m/s 746 mmHg 58%
    16:00 +31°C° 0 mm 2 m/s 745 mmHg 62%
    17:00 +29°C° 0 mm 2 m/s 746 mmHg 71%
    18:00 +27°C° 0 mm 1 m/s 746 mmHg 80%
    19:00 +25°C° 0 mm 1 m/s 747 mmHg 89%
    20:00 +25°C° 0 mm 1 m/s 747 mmHg 88%
    21:00 +25°C° 0 mm 1 m/s 747 mmHg 88%
    22:00 +24°C° 0 mm 1 m/s 747 mmHg 88%
    23:00 +24°C° 0 mm 1 m/s 747 mmHg 87%

    21 Decembrie, Vineri

    Timp Temperatura Precipitaţii Vânt Presiune Umiditate
    00:00 +24°C° 0 mm 1 m/s 747 mmHg 86%
    01:00 +24°C° 0 mm 1 m/s 747 mmHg 86%
    02:00 +24°C° 0 mm 1 m/s 747 mmHg 86%
    03:00 +24°C° 0 mm 1 m/s 747 mmHg 85%
    04:00 +23°C° 0 mm 1 m/s 747 mmHg 85%
    05:00 +23°C° 0 mm 1 m/s 747 mmHg 84%
    06:00 +24°C° 0 mm 1 m/s 747 mmHg 84%
    07:00 +24°C° 0 mm 1 m/s 748 mmHg 83%
    08:00 +26°C° 0 mm 1 m/s 748 mmHg 74%
    09:00 +29°C° 0 mm 1 m/s 748 mmHg 65%
    10:00 +31°C° 0 mm 1 m/s 749 mmHg 57%
    11:00 +32°C° 0 mm 1 m/s 748 mmHg 56%
    12:00 +33°C° 0 mm 1 m/s 747 mmHg 55%
    13:00 +34°C° 0 mm 2 m/s 746 mmHg 53%
    14:00 +34°C° 0 mm 2 m/s 746 mmHg 58%
    15:00 +32°C° 0 mm 2 m/s 745 mmHg 63%
    16:00 +31°C° 0 mm 2 m/s 745 mmHg 68%
    17:00 +29°C° 0 mm 2 m/s 746 mmHg 77%
    18:00 +28°C° 0 mm 2 m/s 746 mmHg 85%
    19:00 +26°C° 0 mm 2 m/s 747 mmHg 93%
    20:00 +26°C° 0 mm 1 m/s 747 mmHg 93%
    21:00 +26°C° 0 mm 1 m/s 748 mmHg 94%
    22:00 +26°C° 0 mm 1 m/s 748 mmHg 95%
    23:00 +26°C° 0 mm 1 m/s 748 mmHg 95%

    22 Decembrie, Sâmbătă

    Timp Temperatura Precipitaţii Vânt Presiune Umiditate
    00:00 +26°C° 0 mm 1 m/s 748 mmHg 95%
    01:00 +25°C° 0 mm 1 m/s 748 mmHg 95%
    02:00 +25°C° 0 mm 1 m/s 747 mmHg 95%
    03:00 +25°C° 0 mm 1 m/s 747 mmHg 95%
    04:00 +25°C° 0 mm 1 m/s 747 mmHg 96%
    05:00 +25°C° 0 mm 1 m/s 747 mmHg 95%
    06:00 +25°C° 0 mm 1 m/s 748 mmHg 95%
    07:00 +25°C° 0 mm 1 m/s 748 mmHg 94%
    08:00 +26°C° 0 mm 1 m/s 749 mmHg 87%
    09:00 +28°C° 0 mm 1 m/s 749 mmHg 79%
    10:00 +29°C° 0 mm 1 m/s 749 mmHg 72%
    11:00 +30°C° 0 mm 2 m/s 749 mmHg 69%
    12:00 +30°C° 0 mm 2 m/s 748 mmHg 66%
    13:00 +31°C° 0 mm 2 m/s 747 mmHg 63%
    14:00 +30°C° 0 mm 2 m/s 747 mmHg 67%
    15:00 +29°C° 0 mm 2 m/s 747 mmHg 71%
    16:00 +29°C° 0 mm 3 m/s 747 mmHg 74%
    17:00 +27°C° 0 mm 2 m/s 747 mmHg 80%
    18:00 +26°C° 0 mm 2 m/s 748 mmHg 86%
    19:00 +25°C° 0 mm 1 m/s 749 mmHg 92%
    20:00 +25°C° 0 mm 1 m/s 749 mmHg 92%
    21:00 +24°C° 0 mm 1 m/s 749 mmHg 93%
    22:00 +24°C° 0 mm 1 m/s 749 mmHg 93%
    23:00 +24°C° 0 mm 1 m/s 749 mmHg 93%

    23 Decembrie, Duminică

    Timp Temperatura Precipitaţii Vânt Presiune Umiditate
    00:00 +23°C° 0 mm 1 m/s 749 mmHg 93%
    01:00 +23°C° 0 mm 1 m/s 749 mmHg 93%
    02:00 +23°C° 0 mm 1 m/s 749 mmHg 92%
    03:00 +23°C° 0 mm 1 m/s 748 mmHg 92%
    04:00 +23°C° 0 mm 1 m/s 748 mmHg 92%
    05:00 +23°C° 0.1 mm 1 m/s 749 mmHg 92%
    06:00 +23°C° 0.1 mm 1 m/s 749 mmHg 93%
    07:00 +23°C° 0.1 mm 1 m/s 749 mmHg 93%
    08:00 +24°C° 0.1 mm 2 m/s 749 mmHg 89%
    09:00 +25°C° 0.1 mm 2 m/s 750 mmHg 85%
    10:00 +26°C° 0.1 mm 2 m/s 750 mmHg 81%
    11:00 +27°C° 0.2 mm 2 m/s 749 mmHg 77%
    12:00 +28°C° 0.2 mm 2 m/s 749 mmHg 74%
    13:00 +29°C° 0.2 mm 2 m/s 748 mmHg 70%
    14:00 +28°C° 0.2 mm 2 m/s 748 mmHg 73%
    15:00 +27°C° 0.2 mm 2 m/s 747 mmHg 76%
    16:00 +27°C° 0.2 mm 2 m/s 747 mmHg 79%
    17:00 +26°C° 0.2 mm 2 m/s 748 mmHg 83%
    18:00 +25°C° 0.2 mm 2 m/s 748 mmHg 88%
    19:00 +24°C° 0.2 mm 2 m/s 748 mmHg 92%
    20:00 +24°C° 0.3 mm 2 m/s 749 mmHg 92%
    21:00 +24°C° 0.3 mm 2 m/s 749 mmHg 93%
    22:00 +24°C° 0.3 mm 2 m/s 749 mmHg 93%
    23:00 +24°C° 0.3 mm 2 m/s 748 mmHg 93%
    Arată mai mult